Weather Service Report


564 
ASUS45 KBOU 291607
RWRCO 

WEATHER ROUNDUP FOR COLORADO
NATIONAL WEATHER SERVICE DENVER/BOULDER CO
1000 AM MDT WED JUN 29 2016

NOTE: "FAIR" INDICATES FEW OR NO CLOUDS BELOW 12000 FEET WITH NO
SIGNIFICANT WEATHER AND/OR OBSTRUCTIONS TO VISIBILITY.

COZ001>005-013-030-031-291700-
...NORTHWEST COLORADO...
  
CITY           SKY/WX    TMP DP  RH WIND       PRES   REMARKS
CRAIG          FAIR      75  42  30 NE8       30.31F                  
HAYDEN         FAIR      68  45  42 E6        30.34F                  
MEEKER         FAIR      72  42  34 CALM      30.33F                  
MOUNT WERNER   NOT AVBL                                               
STEAMBOAT SPGS FAIR      63  44  50 CALM      30.36F                  
WALDEN         FAIR      70  41  35 SE5       30.45F                  
$$

COZ006>008-011-291700-
...WEST CENTRAL VALLEYS...
  
CITY           SKY/WX    TMP DP  RH WIND       PRES   REMARKS
GRAND JUNCTION FAIR      77  41  27 SE5       30.23R                  
MONTROSE       FAIR      77  42  28 CALM      30.32S                  
EAGLE          SUNNY     70  37  30 CALM      30.38F                  
RIFLE          FAIR      73  43  33 NE3       30.29S                  
DELTA          FAIR      79  39  24 E5        30.28F                  
NUCLA          FAIR      73  43  33 CALM      30.37S                  
$$

COZ017>023-064>068-291700-
...SOUTHWEST COLORADO...
  
CITY           SKY/WX    TMP DP  RH WIND       PRES   REMARKS
DURANGO        FAIR      74  42  31 NE7       30.41S                  
CORTEZ         FAIR      78  45  30 W5        30.34S                  
PAGOSA SPRINGS FAIR      70  37  29 S5        30.49S                  
TELLURIDE      FAIR      68  38  33 CALM      30.55F                  
WOLF CREEK PAS FAIR      52  36  54 SW13G21   30.78F                  
$$

COZ009-010-012-014-032>034-037-058>063-291700-
...CENTRAL COLORADO...
  
CITY           SKY/WX    TMP DP  RH WIND       PRES   REMARKS
ASPEN          FAIR      67  41  38 CALM      30.42F                  
BUENA VISTA    FAIR      70  35  28 CALM      30.44F                  
COPPER MTN     FAIR      59  30  33 CALM      30.76R                  
BERTHOUD PASS  FAIR      50  37  62 MISG      30.78S                  
COTTONWOOD PAS FAIR      68  34  28 E7        30.58S                  
GUNNISON       FAIR      63  39  42 CALM      30.49F                  
KREMMLING      FAIR      63  37  39 CALM      30.44F                  
LEADVILLE      FAIR      66  33  29 CALM      30.57F                  
MONARCH PASS   FAIR      55  36  47 SW5       30.84S                  
SALIDA         FAIR      70  40  32 N3        30.48F                  
SUNLIGHT       PTSUNNY   63  41  45 CALM      30.69R                  
WILKERSON PASS FAIR      63  28  27 N8G18     30.71S                  
$$

COZ069>075-291700-
...SAN LUIS VALLEY/SANGRE DE CRISTO MOUNTAINS...
  
CITY           SKY/WX    TMP DP  RH WIND       PRES   REMARKS
ALAMOSA        FAIR      68  41  37 VRB3      30.45F                  
LA VETA PASS   FAIR      61  39  44 S9G21     30.61R                  
SAGUACHE       FAIR      68  43  40 S8        30.48S                  
$$

COZ035-036-038>040-291700-
...NORTHERN COLORADO FRONT RANGE...
  
CITY           SKY/WX    TMP DP  RH WIND       PRES   REMARKS
DENVER INTL AP FAIR      71  53  52 CALM      30.23F                  
DMNS CITY PARK   N/A     73  53  49 SE1       30.23F                  
AURORA         MOSUNNY   71  55  56 CALM      30.25F                  
FRONT RANGE AP MOSUNNY   68  54  60 CALM      30.24F                  
ERIE MUNI ARPT FAIR      70  54  58 CALM      30.22F                  
BOULDER MUN AP FAIR      68  54  60 CALM      30.22F                  
CENTENNIAL     FAIR      73  52  47 NW5       30.25F                  
BROOMFIELD     PTSUNNY   68  55  64 E3        30.25F                  
LONGMONT       FAIR      74  53  47 CALM      30.22F                  
$$

COZ041-046-047-076>085-087-088-291700-
...PIKES PEAK/PALMER DIVIDE AND SOUTHERN FOOTHILLS...
  
CITY           SKY/WX    TMP DP  RH WIND       PRES   REMARKS
COLO. SPRINGS  FAIR      69  55  60 SW6       30.30F                  
A. F. ACADEMY  FAIR      68  54  60 VRB3      30.31S                  
SCHRIEVER AFB  NOT AVBL                                               
ELLICOTT       FAIR     N/A N/A N/A SW7       30.28F                  
FALCON         FAIR      66  55  66 SW6       30.35F                  
FORT CARSON    FAIR      70  56  62 S2        30.27F                  
LIMON          FAIR      70  58  65 SE13      30.25F                  
MONUMENT HILL  FAIR      73  52  46 NW7       30.35R                  
TRINIDAD       FAIR      76  49  38 VRB5      30.27F                  
$$

COZ042>045-048>051-090-091-291700-
...NORTHEAST COLORADO...
  
CITY           SKY/WX    TMP DP  RH WIND       PRES   REMARKS
GREELEY ARPT   FAIR      68  54  60 NW5       30.21F                  
AKRON          FAIR      72  58  61 W12       30.19S                  
BURLINGTON     FAIR      76  58  53 MISG      30.19R                  
WRAY           NOT AVBL                                               
STERLING       FAIR      73  59  60 SW12      30.15S                  
HOLYOKE        FAIR      79  63  57 CALM      30.17F                  
FORT MORGAN    FAIR      70  55  59 W6        30.19F                  
$$

COZ086-089-092>099-291700-
...SOUTHEAST COLORADO...
  
CITY           SKY/WX    TMP DP  RH WIND       PRES   REMARKS
PUEBLO         FAIR      74  59  59 VRB3      30.20F                  
LA JUNTA       FAIR      77  57  50 S8        30.18F                  
LAMAR          FAIR      77  59  53 S10       30.16F                  
SPRINGFIELD      N/A     74  58  57 S15G23    30.21F                  
$$
  

Return to Home page


Western Regional Climate Center, wrcc@dri.edu